Location: Artiguedieu
(43.5000°N, 0.5454°E)
Time: 09:45:47
(UTC+00:00)

Explorer 7 - Pass Details

Date: 07 August 2021
Orbit: 484 x 676 km, 50.3° (Epoch: 22 September)

Event Time Altitude Azimuth Distance (km) Brightness Sun altitude
Rises 03:58:18 0° 261° (W) 2,541 - -9.7°
Exits shadow 04:00:24 - 268° (W) 1,714 8.8 -9.4°
Reaches altitude 10° 04:00:31 10° 268° (W) 1,667 8.8 -9.3°
Maximum altitude 04:04:07 43° 342° (NNW) 702 7.5 -8.8°
Drops below altitude 10° 04:07:50 10° 55° (NE) 1,720 11.1 -8.2°
Sets 04:10:09 0° 62° (ENE) 2,633 12.8 -7.9°
